Back to Previous

Regional Weather Roundup

737 
ASUS44 KLZK 241005
RWRLZK

WEATHER ROUNDUP FOR ARKANSAS
NATIONAL WEATHER SERVICE LITTLE ROCK AR
500 AM CDT THU APR 24 2014

NOTE: "FAIR" INDICATES FEW OR NO CLOUDS BELOW 12,000 FEET WITH NO
SIGNIFICANT WEATHER AND/OR OBSTRUCTIONS TO VISIBILITY.

ARZ001-003-010-029-241100-
NORTHWEST ARKANSAS
  
CITY           SKY/WX    TMP DP  RH WIND       PRES   REMARKS
FAYETTEVILLE   CLOUDY    65  45  48 SE15G22   29.77F                  
FORT SMITH     TSTM      63  51  65 N5        29.82F                  
HARRISON       CLOUDY    58  42  55 SE13      29.83F                  
BENTONVILLE    CLOUDY    66  45  45 S18G25    29.76F                  
ROGERS         CLOUDY    65  45  48 SE20G29   29.76F                  
SILOAM SPGS    CLOUDY    64  45  48 SE16      29.74F                  
HIGHFILL       CLOUDY    64  46  52 S22       29.73F                  
$$

ARZ004-005-016-241100-
NORTH CENTRAL ARKANSAS
  
CITY           SKY/WX    TMP DP  RH WIND       PRES   REMARKS
BATESVILLE     MOCLDY    52  43  71 E3        29.87S                  
FLIPPIN        CLOUDY    54  39  58 CALM      29.86S                  
MTN HOME       CLOUDY    57  39  51 SE5       29.85F                  
$$

ARZ040-041-241100-
WEST CENTRAL ARKANSAS
  
CITY           SKY/WX    TMP DP  RH WIND       PRES   REMARKS
MENA           CLOUDY   N/A N/A N/A SW5       29.87R                  
MOUNT IDA      PTCLDY    65  44  46 VRB6      29.84S                  
$$

ARZ009-017-025-026-028-241100-
NORTHEAST ARKANSAS
  
CITY           SKY/WX    TMP DP  RH WIND       PRES   REMARKS
CORNING        FAIR      52  41  66 SE6       29.90S                  
JONESBORO      PTCLDY    50  42  74 NE6       29.89F                  
NEWPORT        PTCLDY    52  44  74 SE8       29.90R                  
WALNUT RIDGE   MOCLDY    54  37  54 SE8       29.88R                  
BLYTHEVILLE    PTCLDY    57  38  48 SE8       29.92R                  
$$

ARZ022-023-033-042-044-241100-
CENTRAL ARKANSAS
  
CITY           SKY/WX    TMP DP  RH WIND       PRES   REMARKS
LITTLE ROCK    PTCLDY    57  50  77 CALM      29.87F                  
N LITTLE ROCK    N/A     60  47  61 SE5       29.87F                  
JACKSONVILLE   CLEAR     51  48  90 CALM      29.87S                  
SEARCY         PTCLDY    49  48  96 CALM      29.89S                  
HOT SPRINGS    PTCLDY    60  44  55 E3        29.88R                  
RUSSELLVILLE   MOCLDY    55  49  80 CALM      29.85S                  
CLINTON        FAIR      48  48 100 CALM      29.88S                  
$$

ARZ036-241100-
EAST ARKANSAS
  
CITY           SKY/WX    TMP DP  RH WIND       PRES   REMARKS
WEST MEMPHIS   CLEAR     50  43  77 SE5       29.90S                  
$$

ARZ050-053-066-070-073-241100-
SOUTHWEST ARKANSAS
  
CITY           SKY/WX    TMP DP  RH WIND       PRES   REMARKS
ARKADELPHIA    PTSUNNY   57  55  93 CALM      29.88R                  
CAMDEN         MOCLDY    52  48  87 MISG      29.87F                  
TEXARKANA      PTCLDY    62  53  72 SE7       29.84S                  
EL DORADO      MOCLDY    54  49  83 CALM      29.88F                  
DE QUEEN       MOCLDY    59  53  80 E5        29.82S                  
$$

ARZ056-057-069-241100-
SOUTHEAST ARKANSAS
  
CITY           SKY/WX    TMP DP  RH WIND       PRES   REMARKS
PINE BLUFF     PTCLDY    56  50  80 E3        29.88S                  
STUTTGART      PTCLDY    57  45  62 SE7       29.88S                  
MONTICELLO     CLOUDY    58  47  66 CALM      29.88R                  

$$




USA.gov is the U.S. government's official web portal to all federal, state and local government web resources and services.